Regional Weather Roundup
Issued by NWS Cleveland, OH

Home | Current Version | Previous Version | Text Only | Print | Product List | Glossary Off
Versions: 1 2 3 4 5 6 7 8 9 10 11 12 13 14 15 16 17 18 19 20 21 22 23 24 25 26 27 28 29 30 31 32 33 34 35 36 37 38 39 40 41 42 43 44 45 46 47 48 49 50

818
ASUS41 KCLE 271610
RWRCLE
OHIO REGIONAL WEATHER ROUNDUP
NATIONAL WEATHER SERVICE WILMINGTON, OH
1200 PM EDT MON MAR 27 2017

NOTE: "FAIR" INDICATES FEW OR NO CLOUDS BELOW 12,000 FEET WITH NO
SIGNIFICANT WEATHER AND/OR OBSTRUCTIONS TO VISIBILITY.

OHZ001>008-015>018-024>027-034-035-043-044-271700-
   NORTHWEST OHIO

CITY           SKY/WX    TMP DP  RH WIND       PRES   REMARKS
DEFIANCE       CLOUDY    54  48  80 SW8       29.98S
FINDLAY        CLOUDY    57  48  72 W10       29.97S
TOLEDO EXPRESS CLOUDY    55  49  80 SW13      29.97R
TOLEDO EXEC    CLOUDY    56  51  84 SW10      29.98R
LIMA           CLOUDY    56  50  80 W9        29.97F
$$

OHZ009>014-019>023-028>033-038-089-271700-
   NORTHEAST OHIO

CITY           SKY/WX    TMP DP  RH WIND       PRES   REMARKS
CLE-HOPKINS    LGT RAIN  56  51  84 SW8       30.00R
CLE-LAKEFRONT  CLOUDY    57  51  80 SW10      29.96S
CUY CO. ARPT   LGT RAIN  57  52  82 W12       29.98R
LORAIN-ELYRIA  LGT RAIN  54  50  86 SW10      29.98S FOG
ASHTABULA      LGT RAIN  55  51  86 W13       29.97S
AKRON-CANTON   CLOUDY    58  49  72 SW14      29.98F
WOOSTER        CLOUDY    56  48  74 SW12      29.99S
MANSFIELD      CLOUDY    56  48  74 SW13G22   29.99R
YOUNGSTOWN     CLOUDY    57  49  74 SW13      29.99S
$$

OHZ042-051>053-060>062-070>072-077>081-271700-
  SOUTHWEST OHIO

CITY           SKY/WX    TMP DP  RH WIND       PRES   REMARKS
CINC-COVINGTON CLOUDY    60  50  69 SE8       29.99F
CINC-LUNKEN    FAIR      63  53  70 N3        30.00F
HAMILTON       FAIR      63  52  67 CALM      30.00F
DAYTON         PTSUNNY   61  47  59 W7        29.99F
WRIGHT-PAT AFB FAIR      61  52  72 SW3       29.99F
DAYTON GENERAL FAIR      61  49  64 CALM      29.99F
WILMINGTON     FAIR      60  50  69 CALM      30.00F
$$

OHZ036-037-039>041-045>050-054>059-063>069-073>076-082>088-271700-
  CENTRAL AND SOUTHEAST OHIO

CITY           SKY/WX    TMP DP  RH WIND       PRES   REMARKS
COLUMBUS       FAIR      61  49  64 W7        30.00S
OSU AIRPORT    PTSUNNY   61  51  70 W9        29.99F
BOLTON FIELD   PTSUNNY   61  50  67 SW3       30.01F
RICKENBACK AFB FAIR      60  50  69 SW7       30.01S
NEWARK         PTSUNNY   60  49  66 SW8       30.00F
MARION         CLOUDY    55  49  80 SW8       30.01R
LANCASTER      PTSUNNY   61  50  67 SW6       30.02S
ZANESVILLE     PTSUNNY   61  50  67 W6        30.01S
NEW PHILLY     CLOUDY    59  50  72 W8        30.01S
$$




USA.gov is the U.S. government's official web portal to all federal, state and local government web resources and services.